NR76G KU96-KPGA

Flight info

Callsign NR76G
Flight time 0h 40m
Altitude 12500
Route NEW PILOT VFR U96 HITE PGA
Aircraft B36T/L-L/C

Departure

Time 2026-04-18 06:17
Airport Cal Black Memorial Airport (KU96)

Arrival

Time 2026-04-18 06:57
Airport Page Municipal Airport (KPGA)
Time Latitude Longitude Altitude Speed Heading
2026-04-18 06:07 37.44107 -110.56177 4393 ft 0 kts 120°
2026-04-18 06:11 37.44103 -110.56167 4399 ft 3 kts 120°
2026-04-18 06:12 37.44106 -110.56145 4400 ft 8 kts 47°
2026-04-18 06:12 37.44188 -110.56088 4402 ft 20 kts 26°
2026-04-18 06:12 37.44240 -110.56020 4404 ft 0 kts 104°
2026-04-18 06:13 37.44239 -110.56018 4404 ft 2 kts 107°
2026-04-18 06:13 37.44223 -110.55983 4405 ft 5 kts 133°
2026-04-18 06:13 37.44207 -110.55984 4405 ft 7 kts 202°
2026-04-18 06:13 37.44204 -110.55986 4405 ft 0 kts 207°
2026-04-18 06:16 37.44122 -110.56037 4404 ft 28 kts 207°
2026-04-18 06:16 37.43833 -110.56228 4389 ft 76 kts 207°
2026-04-18 06:16 37.43214 -110.56636 4459 ft 114 kts 207°
2026-04-18 06:16 37.42490 -110.57105 4695 ft 120 kts 209°
2026-04-18 06:17 37.41747 -110.57646 4868 ft 131 kts 210°
2026-04-18 06:17 37.40975 -110.58235 5191 ft 124 kts 212°
2026-04-18 06:17 37.40279 -110.58835 5382 ft 122 kts 213°
2026-04-18 06:17 37.39614 -110.59486 5539 ft 119 kts 225°
2026-04-18 06:18 37.39106 -110.60308 5668 ft 121 kts 240°
2026-04-18 06:18 37.38827 -110.61302 5796 ft 121 kts 263°
2026-04-18 06:18 37.38877 -110.62362 5935 ft 122 kts 281°
2026-04-18 06:18 37.39013 -110.63398 6187 ft 115 kts 275°
2026-04-18 06:19 37.39130 -110.64393 6329 ft 122 kts 281°
2026-04-18 06:19 37.39352 -110.65456 6463 ft 124 kts 287°
2026-04-18 06:19 37.39622 -110.66451 6702 ft 120 kts 290°
2026-04-18 06:19 37.39891 -110.67465 6852 ft 122 kts 287°
2026-04-18 06:20 37.40104 -110.68469 7073 ft 118 kts 286°
2026-04-18 06:20 37.40383 -110.69450 7226 ft 120 kts 296°
2026-04-18 06:20 37.40767 -110.70378 7418 ft 119 kts 301°
2026-04-18 06:20 37.41186 -110.71263 7635 ft 116 kts 303°
2026-04-18 06:21 37.41587 -110.72135 7837 ft 117 kts 299°
2026-04-18 06:21 37.41964 -110.73065 7980 ft 119 kts 299°
2026-04-18 06:21 37.42453 -110.73878 8184 ft 117 kts 315°
2026-04-18 06:21 37.42857 -110.74745 8407 ft 117 kts 286°
2026-04-18 06:22 37.42741 -110.75748 8618 ft 121 kts 244°
2026-04-18 06:22 37.42153 -110.76526 8809 ft 126 kts 222°
2026-04-18 06:22 37.41537 -110.77321 8958 ft 127 kts 232°
2026-04-18 06:22 37.40954 -110.78129 9142 ft 124 kts 233°
2026-04-18 06:23 37.40377 -110.78981 9255 ft 128 kts 234°
2026-04-18 06:23 37.39810 -110.79828 9473 ft 125 kts 235°
2026-04-18 06:23 37.39217 -110.80659 9601 ft 130 kts 227°
2026-04-18 06:23 37.38465 -110.81289 9798 ft 131 kts 212°
2026-04-18 06:24 37.37646 -110.81802 9958 ft 131 kts 210°
2026-04-18 06:24 37.36821 -110.82286 10091 ft 134 kts 210°
2026-04-18 06:24 37.36010 -110.82832 10270 ft 129 kts 214°
2026-04-18 06:24 37.35239 -110.83435 10394 ft 133 kts 219°
2026-04-18 06:25 37.34600 -110.84226 10522 ft 126 kts 244°
2026-04-18 06:25 37.34151 -110.85188 10649 ft 127 kts 249°
2026-04-18 06:25 37.33739 -110.86114 10908 ft 120 kts 247°
2026-04-18 06:25 37.33307 -110.87056 10993 ft 126 kts 246°
2026-04-18 06:26 37.32858 -110.87987 11145 ft 125 kts 246°
2026-04-18 06:26 37.32412 -110.88908 11341 ft 122 kts 244°
2026-04-18 06:26 37.31929 -110.89818 11464 ft 125 kts 243°
2026-04-18 06:26 37.31429 -110.90686 11655 ft 123 kts 243°
2026-04-18 06:27 37.30911 -110.91573 11777 ft 126 kts 240°
2026-04-18 06:27 37.30348 -110.92404 11934 ft 127 kts 234°
2026-04-18 06:27 37.29703 -110.93179 12064 ft 128 kts 232°
2026-04-18 06:27 37.29099 -110.93982 12210 ft 126 kts 236°
2026-04-18 06:28 37.29078 -110.94011 12214 ft 126 kts 236°
2026-04-18 06:32 37.28613 -110.94632 12318 ft 128 kts 237°
2026-04-18 06:33 37.28041 -110.95478 12471 ft 124 kts 240°
2026-04-18 06:33 37.27507 -110.96330 12478 ft 125 kts 242°
2026-04-18 06:33 37.26989 -110.97219 12521 ft 125 kts 244°
2026-04-18 06:33 37.26505 -110.98128 12510 ft 125 kts 249°
2026-04-18 06:34 37.26100 -110.99084 12511 ft 123 kts 255°
2026-04-18 06:34 37.25839 -111.00085 12518 ft 120 kts 263°
2026-04-18 06:34 37.25618 -111.01066 12563 ft 116 kts 264°
2026-04-18 06:34 37.25460 -111.02084 12526 ft 118 kts 269°
2026-04-18 06:35 37.25349 -111.03126 12491 ft 120 kts 272°
2026-04-18 06:35 37.25269 -111.04136 12552 ft 118 kts 266°
2026-04-18 06:35 37.25047 -111.05153 12564 ft 120 kts 261°
2026-04-18 06:35 37.24777 -111.06124 12610 ft 120 kts 258°
2026-04-18 06:36 37.24453 -111.07108 12620 ft 120 kts 256°
2026-04-18 06:36 37.24117 -111.08072 12616 ft 121 kts 255°
2026-04-18 06:36 37.23822 -111.09056 12610 ft 122 kts 258°
2026-04-18 06:36 37.23520 -111.10044 12663 ft 116 kts 258°
2026-04-18 06:37 37.23241 -111.11022 12585 ft 124 kts 258°
2026-04-18 06:37 37.22884 -111.11988 12631 ft 120 kts 250°
2026-04-18 06:37 37.22399 -111.12886 12487 ft 129 kts 242°
2026-04-18 06:37 37.21773 -111.13716 12411 ft 132 kts 230°
2026-04-18 06:38 37.21092 -111.14461 12345 ft 129 kts 225°
2026-04-18 06:38 37.20354 -111.15131 12243 ft 131 kts 219°
2026-04-18 06:38 37.19568 -111.15746 12100 ft 136 kts 217°
2026-04-18 06:38 37.18718 -111.16330 11854 ft 142 kts 213°
2026-04-18 06:39 37.17857 -111.16922 11675 ft 139 kts 214°
2026-04-18 06:39 37.17033 -111.17528 11540 ft 136 kts 218°
2026-04-18 06:39 37.16285 -111.18209 11415 ft 132 kts 224°
2026-04-18 06:39 37.15565 -111.18923 11250 ft 133 kts 224°
2026-04-18 06:40 37.14832 -111.19662 11055 ft 135 kts 225°
2026-04-18 06:40 37.14105 -111.20401 10905 ft 133 kts 224°
2026-04-18 06:40 37.13446 -111.21188 10751 ft 131 kts 231°
2026-04-18 06:40 37.12884 -111.22071 10613 ft 128 kts 238°
2026-04-18 06:41 37.12377 -111.22979 10480 ft 127 kts 240°
2026-04-18 06:41 37.11923 -111.23933 10316 ft 127 kts 250°
2026-04-18 06:41 37.11801 -111.24300 10245 ft 128 kts 255°
2026-04-18 06:42 37.11666 -111.24897 10175 ft 126 kts 259°
2026-04-18 06:42 37.11351 -111.25920 9937 ft 135 kts 241°
2026-04-18 06:42 37.10782 -111.26849 9809 ft 128 kts 232°
2026-04-18 06:42 37.10202 -111.27655 9618 ft 132 kts 229°
2026-04-18 06:43 37.09612 -111.28558 9489 ft 128 kts 241°
2026-04-18 06:43 37.09219 -111.29471 9364 ft 126 kts 245°
2026-04-18 06:43 37.08869 -111.30468 9225 ft 124 kts 259°
2026-04-18 06:43 37.08979 -111.31528 8919 ft 128 kts 307°
2026-04-18 06:44 37.09784 -111.31877 8614 ft 132 kts
2026-04-18 06:44 37.10573 -111.31571 8746 ft 110 kts 30°
2026-04-18 06:44 37.11127 -111.30924 8435 ft 125 kts 45°
2026-04-18 06:44 37.11679 -111.30159 8433 ft 114 kts 46°
2026-04-18 06:45 37.12210 -111.29377 8383 ft 120 kts 48°
2026-04-18 06:45 37.12688 -111.28534 8461 ft 118 kts 59°
2026-04-18 06:45 37.12991 -111.27612 8476 ft 121 kts 70°
2026-04-18 06:45 37.13152 -111.26566 8527 ft 123 kts 80°
2026-04-18 06:46 37.13207 -111.25495 8559 ft 122 kts 91°
2026-04-18 06:46 37.12997 -111.24449 8525 ft 129 kts 111°
2026-04-18 06:46 37.12537 -111.23509 8620 ft 125 kts 130°
2026-04-18 06:46 37.11909 -111.22728 8623 ft 128 kts 135°
2026-04-18 06:47 37.11223 -111.22047 8688 ft 127 kts 146°
2026-04-18 06:47 37.10427 -111.21520 8703 ft 130 kts 157°
2026-04-18 06:47 37.09567 -111.21204 8750 ft 131 kts 167°
2026-04-18 06:47 37.08669 -111.21192 8761 ft 130 kts 194°
2026-04-18 06:48 37.07813 -111.21549 8817 ft 128 kts 208°
2026-04-18 06:48 37.07110 -111.22251 8807 ft 130 kts 230°
2026-04-18 06:48 37.06678 -111.23203 8877 ft 125 kts 253°
2026-04-18 06:48 37.06472 -111.24251 8908 ft 124 kts 266°
2026-04-18 06:49 37.06502 -111.25316 8955 ft 122 kts 284°
2026-04-18 06:49 37.06805 -111.26310 9025 ft 123 kts 300°
2026-04-18 06:49 37.07260 -111.27214 9048 ft 122 kts 306°
2026-04-18 06:49 37.07741 -111.28071 9000 ft 124 kts 304°
2026-04-18 06:50 37.08131 -111.29051 8935 ft 122 kts 294°
2026-04-18 06:50 37.08345 -111.30115 8718 ft 135 kts 283°
2026-04-18 06:50 37.08375 -111.31297 8493 ft 142 kts 265°
2026-04-18 06:50 37.08198 -111.32571 8242 ft 145 kts 261°
2026-04-18 06:51 37.08003 -111.33750 8184 ft 132 kts 258°
2026-04-18 06:51 37.07765 -111.34824 8105 ft 124 kts 255°
2026-04-18 06:51 37.07511 -111.35848 7984 ft 122 kts 253°
2026-04-18 06:51 37.07205 -111.36832 7878 ft 123 kts 249°
2026-04-18 06:52 37.06910 -111.37899 7731 ft 128 kts 254°
2026-04-18 06:52 37.06664 -111.38920 7711 ft 121 kts 255°
2026-04-18 06:52 37.06434 -111.39969 7532 ft 128 kts 256°
2026-04-18 06:52 37.06152 -111.41041 7353 ft 133 kts 250°
2026-04-18 06:53 37.05828 -111.42149 7127 ft 140 kts 249°
2026-04-18 06:53 37.05463 -111.43328 6827 ft 149 kts 247°
2026-04-18 06:53 37.05040 -111.44535 6601 ft 147 kts 244°
2026-04-18 06:53 37.04573 -111.45565 6676 ft 128 kts 232°
2026-04-18 06:54 37.03955 -111.46318 6621 ft 122 kts 215°
2026-04-18 06:54 37.03255 -111.46946 6526 ft 128 kts 210°
2026-04-18 06:54 37.02427 -111.47370 6475 ft 129 kts 188°
2026-04-18 06:54 37.01479 -111.47344 6037 ft 149 kts 166°
2026-04-18 06:55 37.00461 -111.46971 5608 ft 158 kts 160°
2026-04-18 06:55 36.99544 -111.46269 5349 ft 152 kts 144°
2026-04-18 06:55 36.98607 -111.46003 5370 ft 133 kts 179°
2026-04-18 06:55 36.97680 -111.46072 5014 ft 137 kts 179°
2026-04-18 06:56 36.96804 -111.45903 4982 ft 112 kts 165°
2026-04-18 06:56 36.96093 -111.45653 4814 ft 105 kts 166°
2026-04-18 06:56 36.95384 -111.45424 4687 ft 104 kts 165°
2026-04-18 06:56 36.94687 -111.45238 4602 ft 102 kts 170°
2026-04-18 06:57 36.93986 -111.45106 4476 ft 102 kts 171°
2026-04-18 06:57 36.92743 -111.44833 4265 ft 76 kts 170°
2026-04-18 06:57 36.92399 -111.44757 4265 ft 22 kts 169°
2026-04-18 06:58 36.92309 -111.44797 4265 ft 3 kts 220°
2026-04-18 06:58 36.92292 -111.44814 4265 ft 0 kts 213°
2026-04-18 07:06 36.92288 -111.44818 4255 ft 5 kts 213°
2026-04-18 07:06 36.92264 -111.44876 4262 ft 15 kts 334°
2026-04-18 07:06 36.92403 -111.44915 4264 ft 25 kts 349°
2026-04-18 07:06 36.92543 -111.45016 4264 ft 19 kts 346°
2026-04-18 07:07 36.92620 -111.45050 4264 ft 9 kts 304°
2026-04-18 07:07 36.92644 -111.45177 4262 ft 21 kts 323°
2026-04-18 07:07 36.92770 -111.45210 4264 ft 13 kts 18°
2026-04-18 07:07 36.92788 -111.45185 4264 ft 0 kts 88°